Home   Weather   Liverpool   Past weeks

Flag for United Kingdom Past Weather in Liverpool, England, United Kingdom — Yesterday and Last 2 Weeks

Now
41 °F

Clear.


Feels Like: 34 °F
Forecast: 39 / 48 °F
Wind: 12 mph from North

Location: Liverpool Airport

Current Time: Apr 25, 2017 at 11:31:10 pm

Latest Report: Apr 25, 2017 at 10:50 pm


Visibility: 10 mi

Pressure: 30.09 "Hg

Humidity: 70%

Dew Point: 32 °F

Location of LiverpoolLocation

Past Weather in Liverpool — Graph

°F

Liverpool Temperature Yesterday

Maximum temperature yesterday: 52 °F (at 9:50 am)
Minimum temperature yesterday: 39 °F (at 11:50 pm)
Average temperature yesterday: 48 °F

High & Low Weather Summary for the Past Weeks

 TemperatureHumidityPressure
High57 °F (Apr 20, 12:50 pm)100% (Apr 14, 8:50 am)30.63 "Hg (Apr 14, 8:50 am)
Low36 °F (Apr 25, 5:50 am)34% (Apr 24, 6:20 pm)29.89 "Hg (Apr 25, 2:20 am)
Average49 °F76%30.24 "Hg
* Reported Apr 10 10:20 pm — Apr 25 10:20 pm, Liverpool, Weather by CustomWeather, © 2017

Note: Actual official high and low records may vary slightly from our data, if they occured in-between our weather recording intervals... More about our weather records

Advertising

Liverpool Weather History for the Previous 24 Hours

Scroll right to see more
 ConditionsComfort  
Time TempWeatherWind HumidityBarometerVisibility
10:20 pm
Tue, Apr 25
41 °FPassing clouds.9 mph70%30.07 "HgN/A
9:50 pm41 °FPassing clouds.12 mph70%30.07 "HgN/A
9:20 pm43 °FScattered showers. Passing clouds.12 mph66%30.07 "HgN/A
8:50 pm43 °FScattered showers. Passing clouds.15 mph66%30.04 "HgN/A
7:50 pm46 °FScattered clouds.9 mph62%30.04 "HgN/A
7:20 pm45 °FScattered showers. Scattered clouds.13 mph66%30.04 "HgN/A
6:50 pm45 °FScattered showers. Scattered clouds.14 mph66%30.01 "HgN/A
6:20 pm48 °FScattered showers. Scattered clouds.16 mph58%30.01 "HgN/A
5:50 pm48 °FScattered clouds.17 mph54%29.98 "HgN/A
5:20 pm46 °FScattered showers. Scattered clouds.10 mph66%30.01 "HgN/A
4:50 pm46 °FScattered showers. Scattered clouds.16 mph57%30.01 "HgN/A
4:20 pm48 °FScattered showers. Scattered clouds.16 mph50%29.98 "HgN/A
3:50 pm48 °FLight rain. Scattered clouds.22 mph54%29.98 "HgN/A
3:20 pm48 °FScattered showers. Scattered clouds.16 mph50%29.98 "HgN/A
2:50 pm46 °FScattered showers. Scattered clouds.16 mph50%30.01 "HgN/A
2:20 pm46 °FSprinkles. Partly sunny.16 mph53%30.01 "HgN/A
1:50 pm46 °FSprinkles. Broken clouds.17 mph53%30.01 "HgN/A
1:20 pm45 °FBroken clouds.16 mph57%30.01 "HgN/A
12:50 pm46 °FBroken clouds.17 mph53%29.98 "HgN/A
12:20 pm46 °FScattered clouds.16 mph50%30.01 "HgN/A
11:50 am45 °FScattered clouds.15 mph57%30.01 "HgN/A
11:20 am46 °FScattered clouds.15 mph57%30.01 "HgN/A
10:50 am45 °FScattered clouds.16 mph57%29.98 "HgN/A
10:20 am46 °FScattered clouds.18 mph57%29.98 "HgN/A
9:50 am45 °FScattered clouds.15 mph61%30.01 "HgN/A
9:20 am43 °FPassing clouds.12 mph71%30.01 "HgN/A
8:50 am41 °FPassing clouds.13 mph70%30.01 "HgN/A
8:20 am41 °FPassing clouds.9 mph76%30.01 "HgN/A
7:50 am39 °FPassing clouds.8 mph75%29.98 "HgN/A
7:20 am37 °FPassing clouds.8 mph81%29.98 "HgN/A
6:50 am36 °FPassing clouds.9 mph81%29.98 "HgN/A
6:20 am36 °FPassing clouds.9 mph87%29.95 "HgN/A
5:50 am36 °FPassing clouds.7 mph87%29.95 "HgN/A
5:20 am37 °FClear.8 mph87%29.95 "Hg10 mi
4:50 am37 °FClear.7 mph87%29.92 "Hg10 mi
4:20 am37 °FChilly.8 mph87%29.92 "HgN/A
3:20 am37 °FPassing clouds.5 mph87%29.92 "HgN/A
2:50 am39 °FPartly cloudy.9 mph87%29.89 "HgN/A
2:20 am39 °FSprinkles. Passing clouds.8 mph87%29.89 "HgN/A
1:50 am37 °FLight rain. Passing clouds.9 mph87%29.92 "HgN/A
1:20 am37 °FPassing clouds.9 mph93%29.92 "Hg5 mi
12:50 am39 °FRain showers. Passing clouds.10 mph93%29.92 "HgN/A
12:20 am39 °FRain showers. Partly cloudy.24 mph87%29.95 "Hg6 mi
11:50 pm
Mon, Apr 24
39 °FPassing clouds.8 mph75%29.95 "HgN/A
11:20 pm43 °FSleet. Passing clouds.16 mph57%29.95 "HgN/A
Weather by CustomWeather, © 2017

See weather overviewHow to use our weather pages